Погода в Госфорде

Австралия     33°25′01″S   151°20′38″E
темп.,
°C
ветер,
м/с
пор.,
м/с
влажн.,
%
обл.,
%
осадки,
мм/ч
давл.,
гПа
погр.,
м
31 июля, сб
сб3101:00+7сз23550 0.0 101870
04:00+6сз27581 0.0 1016138
07:00+7сз26645 0.0 1016115
10:00+17ссз383872 0.0 1015429
13:00+22ссз363121 0.0 1011983
16:00+22с4103769 0.0 1009697
19:00+18ссз413470 0.0 1011650
22:00+17ссз313580 0.0 1010505
1 августа, вс
вс101:00+16ссз29700 0.0 1009283
04:00+13ссз28842 0.0 1007155
07:00+14сз313750 0.0 1007374
10:00+22сз411420 0.0 1008787
13:00+26зсз5143030 0.0 10062585
16:00+19з51353100 0.0 10101646
19:00+15з49615 0.1 1012995
22:00+12ююз410612 0.1 1016696
2 августа, пн
пн201:00+9зюз238022 0.0 101880
04:00+8з228246 0.0 101864
07:00+6з118925 0.0 102138
10:00+15ю12514 0.0 1021514
13:00+17в344741 0.0 10181617
16:00+16всв35480 0.0 10171417
19:00+12св2571100 0.0 1018248
22:00+15ссв41174100 0.0 10171037
3 августа, вт
вт301:00+14ссв31083100 0.1 1013477
04:00+12с299314 0.6 1011361
07:00+12ссз1496100 0.5 1011153
10:00+13сз279312 1.6 1010373
13:00+21зсз512382 0.1 10062146
16:00+18зсз510300 0.1 10071937
19:00+13зсз614483 0.0 10101562
22:00+12зсз513500 0.0 10111352
4 августа, ср
ср401:00+10зсз513579 0.0 10111496
04:00+10зсз515546 0.0 10091595
07:00+10зсз4136225 0.0 10111420
10:00+13з5125366 0.0 10111677
13:00+16зюз69397 0.0 10101846
16:00+15з511464 0.0 10111624
19:00+11з412570 0.0 1014986
22:00+10з411635 0.0 1015668